Location: Newark
(34.1333°N, 7.9667°W)
Time: 06:40:23
(UTC+00:00)

Envisat - Pass Details

Date: 03 October 2021
Orbit: 764 x 766 km, 98.2° (Epoch: 23 October)

Event Time Altitude Azimuth Distance (km) Brightness Sun altitude
Rises 05:41:55 0° 11° (N) 3,234 6.4 -10.3°
Reaches altitude 10° 05:44:14 10° 10° (N) 2,304 5.6 -9.9°
Maximum altitude 05:49:19 81° 284° (WNW) 776 3.0 -8.8°
Drops below altitude 10° 05:54:22 10° 197° (SSW) 2,290 5.3 -7.8°
Sets 05:56:39 0° 196° (SSW) 3,212 6.1 -7.3°
